Location: Newark
(45.8667°N, 9.7333°E)
Time: 11:33:41
(UTC+00:00)

Vanguard 2 - All Passes

Search period start: 22 January 2020 00:00
Search period end: 01 February 2020 00:00
Orbit: 553 x 2938 km, 32.9° (Epoch: 21 January)

Date Brightness Start Highest point End Pass type
(mag) Time Alt. Az. Time Alt. Az. Time Alt. Az.
22 Jan - 08:45:16 10° SSE 08:47:00 10° SSE 08:48:40 10° SE daylight
22 Jan - 10:48:23 10° SSW 10:56:06 22° SSE 11:01:39 10° ESE daylight
22 Jan - 12:57:50 10° SW 13:04:31 26° S 13:09:11 10° SE daylight
22 Jan - 15:08:33 10° WSW 15:12:01 16° SSW 15:14:54 10° SSE daylight
23 Jan - 08:58:20 10° S 09:04:47 15° SSE 09:10:02 10° ESE daylight
23 Jan - 11:05:17 10° SW 11:13:53 26° S 11:19:46 10° ESE daylight
23 Jan - 13:15:29 10° WSW 13:22:11 27° S 13:26:50 10° SE daylight
23 Jan - 15:27:00 10° SW 15:29:30 13° SSW 15:31:40 10° S daylight
24 Jan - 09:13:52 10° SSW 09:22:33 20° SSE 09:29:06 10° ESE daylight
24 Jan - 11:22:31 10° SW 11:31:38 30° S 11:37:43 10° ESE daylight
24 Jan - 13:33:18 10° WSW 13:39:48 26° SSW 13:44:22 10° SE daylight
25 Jan - 07:26:55 10° SSE 07:30:48 11° SSE 07:34:21 10° SE daylight
25 Jan - 09:30:12 10° SSW 09:40:20 25° SSE 09:47:34 10° ESE daylight
25 Jan - 11:39:58 10° WSW 11:49:22 33° S 11:55:31 10° ESE daylight
25 Jan - 13:51:15 10° WSW 13:57:22 24° SSW 14:01:45 10° SSE daylight
26 Jan - 07:40:21 10° S 07:48:31 17° SSE 07:55:14 10° ESE daylight
26 Jan - 09:47:00 10° SW 09:58:06 30° SSE 10:05:43 10° ESE daylight
26 Jan - 11:57:36 10° WSW 12:07:05 34° S 12:13:13 10° ESE daylight
26 Jan - 14:09:21 10° WSW 14:14:51 20° SSW 14:18:56 10° SSE daylight
27 Jan - 07:55:43 10° SSW 08:06:13 22° SSE 08:14:22 10° ESE daylight
27 Jan - 10:04:07 10° SW 10:15:53 34° S 10:23:40 10° ESE daylight
27 Jan - 12:15:22 10° WSW 12:24:44 34° S 12:30:49 10° SE daylight
27 Jan - 14:27:43 10° WSW 14:32:15 17° SSW 14:35:49 10° S daylight
28 Jan - 06:10:04 10° SSE 06:14:09 11° SE 06:17:58 10° SE visible
28 Jan - 08:11:52 10° SSW 08:23:56 27° SSE 08:32:55 10° ESE daylight
28 Jan - 10:21:30 10° SW 10:33:38 38° S 10:41:31 10° ESE daylight
28 Jan - 12:33:15 10° WSW 12:42:21 32° SSW 12:48:19 10° SE daylight
28 Jan - 14:46:38 10° WSW 14:49:34 13° SW 14:52:04 10° SSW daylight
29 Jan - 06:22:52 10° S 06:31:44 17° SE 06:39:27 10° ESE daylight
29 Jan - 08:28:31 10° SW 08:41:41 32° SSE 08:51:08 10° ESE daylight
29 Jan - 10:39:04 10° WSW 10:51:22 40° S 10:59:15 10° ESE daylight
29 Jan - 12:51:15 10° WSW 12:59:53 29° SSW 13:05:40 10° SE daylight
30 Jan - 06:37:54 10° S 06:49:20 22° SSE 06:58:51 10° ESE daylight
30 Jan - 08:45:31 10° SW 08:59:26 37° SSE 09:09:09 10° ESE daylight
30 Jan - 10:56:47 10° WSW 11:09:04 40° S 11:16:56 10° ESE daylight
30 Jan - 13:09:22 10° WSW 13:17:20 25° SSW 13:22:50 10° SSE daylight
31 Jan - 06:53:49 10° SSW 07:06:58 28° SSE 07:17:33 10° ESE daylight
31 Jan - 09:02:47 10° SW 09:17:11 41° S 09:27:03 10° ESE daylight
31 Jan - 11:14:37 10° WSW 11:26:44 40° SSW 11:34:29 10° SE daylight
31 Jan - 13:27:43 10° WSW 13:34:40 21° SW 13:39:44 10° SSE daylight
